Regional Weather Roundup
Issued by NWS Green Bay, WI

Home | Current Version | Previous Version | Graphics & Text | Print | Product List | Glossary Off
Versions: 1 2 3 4 5 6 7 8 9 10 11 12 13 14 15 16 17 18 19 20 21 22 23 24 25 26 27 28 29 30 31 32 33 34 35 36 37 38 39 40 41 42 43 44 45 46 47 48 49 50

000
ASUS43 KGRB 291259
RWRGRB

NORTH-CENTRAL AND NORTHEAST WISCONSIN REGIONAL WEATHER ROUNDUP
NATIONAL WEATHER SERVICE GREEN BAY WI
700 AM CST THU JAN 29 2015

WIZ005-009-010>012-018-019-291400-
NORTH CENTRAL WISCONSIN

CITY           SKY/WX    TMP DP  RH WIND       PRES   REMARKS
IRONWOOD       CLOUDY    28  25  86 NW16      29.87R
MANITOWISH WTR NOT AVBL
ARBOR VITAE    NOT AVBL
EAGLE RIVER    NOT AVBL
LAND O LAKES   NOT AVBL
RHINELANDER    CLOUDY    27  24  89 NW15G23   29.82R
PHILLIPS       NOT AVBL
ANTIGO         NOT AVBL
TOMAHAWK       NOT AVBL
MERRILL        NOT AVBL
$$

WIZ013-073-291400-
NORTHEAST WISCONSIN

CITY           SKY/WX    TMP DP  RH WIND       PRES   REMARKS
IRON MOUNTAIN  CLOUDY    27  24  89 NW9       29.77R FOG
MARINETTE      CLOUDY    28  25  86 NW7       29.79R
$$

WIZ017-030-035>037-045-291400-
CENTRAL WISCONSIN

CITY           SKY/WX    TMP DP  RH WIND       PRES   REMARKS
MEDFORD        NOT AVBL
WAUSAU         CLOUDY    28  25  88 NW10      29.84R
MOSINEE        CLOUDY    27  27 100 NW10      29.86R FOG
MARSHFIELD     CLOUDY    29  26  89 NW15      29.88R FOG
WISC RAPIDS    CLOUDY    29  24  82 NW13      29.89R
STEVENS POINT  NOT AVBL
WAUPACA        NOT AVBL
SHAWANO        NOT AVBL
CLINTONVILLE   NOT AVBL
$$

WIZ038-039-048-051-291400-
FOX VALLEY

CITY           SKY/WX    TMP DP  RH WIND       PRES   REMARKS
NWS GREEN BAY  CLOUDY    30  25  81 NW12      29.80R HAZE
APPLETON       CLOUDY    28  25  86 NW17      29.81R FOG
OSHKOSH        CLOUDY    30  25  81 NW13      29.81R HAZE
FOND DU LAC    LGT SNOW  30  25  81 NW16      29.80R
$$

WIZ022-050-052-291400-
EAST CENTRAL WISCONSIN

CITY           SKY/WX    TMP DP  RH WIND       PRES   REMARKS
STURGEON BAY   CLOUDY    28  25  86 NW10      29.80R
MANITOWOC      NOT AVBL
SHEBOYGAN      CLOUDY    31  25  78 NW12      29.77R
$$

LMZ563-521-522-541>543-291400-
LAKESHORE

STATION/POSITION TIME  TEMP    WIND        PRES    VSBY  WAVE
                       AIR SEA DIR/SP/G                  HT/PER
                 (UTC) (F)     (DEG/KT/KT) (MB)    (MI)  (FT/S)
SHEBOYGAN LKSHOR 1200   33     320/  8/  9 1008.3R
KEWAUNEE LKSHORE 1200   31     320/  6/ 11 1007.4R
NORTHPORT PIER   1200   30     290/  6/ 10 1007.8F
SISTER BAY LKSHO 1200   29     340/  9/ 10   N/A
CHAMBERS ISLAND  1200   29     300/  3/  6 1008.8R
MENOMINEE LKSHOR 1200   29     290/  8     1009.2R
$$



USA.gov is the U.S. government's official web portal to all federal, state and local government web resources and services.